Theta_e
319 318 318 325 321 316 319 319 317 320 319 321 321 321 325 328 334 335 334 332 331 330 331 332 333 333 333 324 319 317 314 312 310 309 310 311 313 323 331 333 331 324 314 312 308 307 310 317 324
318 316 322 323 319 316 316 316 318 319 319 321 321 323 325 330 333 334 333 333 331 331 331 330 332 334 335 325 320 321 322 321 319 315 311 309 310 317 328 328 322 314 312 309 306 308 311 319 325
315 318 322 319 316 316 317 317 318 319 321 321 322 323 327 333 335 338 337 335 331 331 331 329 331 332 333 329 320 321 324 324 322 320 318 314 309 309 315 314 310 309 309 307 306 308 313 319 321
317 322 320 316 319 317 316 317 319 318 320 321 322 323 329 334 335 339 338 337 334 334 332 330 329 331 331 331 323 321 323 325 323 321 319 318 315 310 308 307 307 307 307 305 306 308 313 321 323
318 322 318 320 319 317 315 320 321 318 318 320 321 322 329 335 338 338 339 339 337 336 334 331 329 330 330 331 327 322 323 325 324 322 321 320 318 314 312 309 307 306 305 305 306 307 313 320 322
320 319 317 319 318 317 316 320 321 318 319 320 319 324 327 334 335 337 338 339 338 336 336 333 329 329 330 329 329 325 324 326 325 323 322 322 321 319 315 312 309 307 306 305 305 306 310 317 321
320 317 317 319 316 317 316 319 318 316 319 319 319 320 327 328 332 336 338 338 337 336 336 335 330 329 331 329 329 329 325 326 326 325 323 323 322 319 316 314 313 311 309 306 305 305 307 313 318
320 316 318 317 317 318 317 319 319 318 317 319 318 318 326 325 332 337 337 337 336 336 335 335 330 330 330 330 329 329 329 326 327 326 325 324 323 320 318 317 316 315 313 310 307 305 306 310 316
318 313 315 317 318 316 318 317 318 318 318 318 318 320 322 323 329 338 337 337 336 334 333 333 330 330 330 330 328 329 329 329 327 327 326 325 324 323 321 319 319 318 317 316 314 310 308 309 314
316 312 316 315 315 315 317 318 317 317 317 318 318 317 320 322 324 330 336 336 336 334 333 332 330 331 331 330 329 328 329 328 329 328 327 326 325 324 324 322 321 320 319 318 317 315 313 313 314
317 315 315 315 316 317 317 317 317 316 314 316 317 317 321 322 323 324 329 336 335 335 333 332 333 333 331 331 330 329 328 329 329 329 328 327 326 325 324 324 323 322 321 320 318 317 316 315 315
315 315 315 316 316 316 316 317 316 316 317 317 317 317 318 321 320 319 326 333 335 335 334 331 333 332 332 332 329 330 329 329 329 329 329 328 327 327 325 325 323 323 322 321 320 319 318 315 314
313 314 314 316 315 316 316 316 316 316 317 317 317 318 318 318 318 317 319 327 333 334 334 332 333 333 332 331 332 332 332 330 330 330 329 328 327 327 326 324 323 323 322 322 322 321 320 317 314
315 315 314 315 315 315 314 314 315 316 317 317 316 317 318 318 317 317 320 321 325 330 332 333 333 333 332 333 332 331 332 332 331 331 331 330 329 328 327 325 324 323 323 322 321 321 321 319 317
315 314 313 314 315 315 315 310 312 315 316 317 317 316 316 317 317 316 316 317 319 324 328 330 331 334 332 333 332 333 332 333 332 331 331 332 331 330 330 327 325 324 323 322 323 321 321 319 318
314 313 312 313 313 315 313 308 311 315 315 316 316 316 316 316 316 316 316 317 319 323 328 330 330 331 332 332 332 334 332 334 332 330 329 330 330 330 330 329 326 324 323 323 324 323 322 320 319
313 310 311 315 314 314 313 311 314 316 315 315 315 316 316 316 316 316 316 316 317 320 326 329 331 330 331 330 332 334 334 333 330 328 329 329 330 330 330 330 328 326 324 324 325 323 323 321 319
313 314 313 313 314 313 313 311 311 315 315 316 316 316 316 316 316 316 316 316 316 316 320 326 330 330 330 331 329 330 329 329 329 329 328 327 328 329 330 330 330 327 326 325 325 324 323 320 320
314 314 313 313 313 314 312 311 311 314 314 313 315 316 316 317 316 317 317 317 317 316 316 320 326 328 329 330 330 328 328 329 330 330 330 327 328 331 330 330 330 329 328 327 325 325 323 320 317
314 314 312 312 313 313 312 311 310 310 312 314 314 314 315 316 316 317 317 317 317 317 316 316 318 323 326 327 326 327 324 324 327 328 330 328 330 328 329 328 327 330 330 328 327 326 324 318 320
314 313 312 312 312 311 310 309 310 311 313 314 314 315 315 315 316 316 316 317 317 317 317 317 316 316 320 323 325 327 326 326 328 327 328 327 326 327 327 328 326 327 327 329 326 326 325 324 321
313 312 312 312 311 310 311 309 310 312 310 309 313 315 316 316 316 316 316 316 316 317 317 317 317 316 316 320 323 324 322 321 320 323 326 326 327 326 327 329 326 323 327 327 327 326 326 324 323
312 313 313 313 313 314 312 310 309 309 310 309 311 314 315 317 316 317 317 317 317 316 317 317 317 316 316 317 318 319 320 320 320 321 322 323 323 323 320 325 325 325 325 326 326 326 323 323 323
311 313 313 312 311 310 310 309 308 309 310 312 313 315 316 316 315 315 315 315 317 317 316 317 317 316 315 315 315 316 316 316 316 317 316 316 315 314 314 315 323 325 320 324 324 324 325 322 323
313 310 309 312 312 310 309 309 309 310 310 312 314 314 314 314 314 314 315 315 315 315 316 316 316 316 315 314 314 314 314 314 314 314 314 314 314 313 313 312 312 317 324 321 322 323 324 319 321
311 309 309 311 314 312 308 311 312 309 312 313 314 314 315 316 316 315 315 315 315 315 314 314 314 314 314 313 313 313 313 313 313 313 313 313 313 313 313 312 311 311 318 321 322 322 322 321 321
311 313 310 311 300 308 309 309 309 309 309 313 313 314 315 314 315 316 316 316 316 314 314 314 314 314 313 313 313 312 312 312 312 312 312 312 312 312 312 312 312 312 311 319 317 319 319 322 321
311 310 312 310 309 310 309 309 311 310 310 311 313 315 314 315 315 316 316 316 315 314 314 314 313 313 313 313 313 313 313 313 313 312 312 312 312 312 312 311 311 311 311 310 318 318 318 319 317
310 311 311 311 310 311 309 310 307 309 311 312 313 314 314 315 315 315 315 315 314 314 314 315 315 315 315 314 314 314 314 314 313 313 312 312 312 312 311 311 311 311 310 311 317 318 318 315 318
309 310 310 311 310 308 309 313 309 308 309 311 312 314 314 314 314 315 314 315 315 315 314 315 315 315 315 315 314 314 314 314 314 315 314 313 312 312 311 311 311 310 310 310 314 316 316 317 318
Wind_Speed
5 7 4 4 4 5 1 3 4 6 5 4 8 9 8 5 2 2 16 15 22 22 19 18 17 14 14 11 10 11 13 13 13 13 13 14 16 18 14 12 7 7 14 16 18 20 23 25 24
5 4 3 2 4 4 3 4 7 4 9 10 9 7 3 2 4 19 23 19 21 20 19 17 15 13 13 10 10 12 12 14 13 13 13 13 14 16 13 9 7 10 14 16 18 21 23 24 23
3 4 3 4 3 4 3 5 8 9 10 7 4 6 4 4 10 17 16 19 19 19 17 16 15 14 12 10 10 10 11 13 13 13 12 12 12 11 10 7 9 12 14 15 18 20 22 22 21
2 1 2 4 3 2 6 8 17 8 6 7 8 8 8 4 17 13 17 16 18 18 17 15 15 14 13 11 9 9 9 10 11 12 12 11 11 10 9 9 10 12 13 15 17 19 21 21 20
1 1 1 2 2 3 5 16 13 5 9 7 7 6 8 13 11 14 21 16 17 17 16 15 15 14 13 11 9 8 8 8 10 10 11 11 10 9 9 9 10 11 13 14 16 18 19 19 18
1 0 3 2 4 4 3 11 16 11 14 10 5 10 7 13 14 17 21 18 15 14 14 15 15 14 14 12 10 8 7 8 8 8 9 10 9 9 9 9 10 11 12 13 15 17 18 18 15
3 3 3 1 4 4 4 8 11 12 13 8 7 5 9 16 15 23 21 18 16 15 15 14 16 16 14 13 11 9 8 8 7 7 7 8 9 9 9 10 10 11 11 12 13 15 16 16 15
1 4 5 4 1 3 5 5 3 13 3 14 9 6 6 15 22 22 24 20 18 13 15 16 19 18 17 15 13 11 9 10 8 6 6 6 8 10 10 10 10 11 11 12 13 14 15 15 14
1 4 2 4 3 5 10 3 2 6 12 5 8 8 9 14 21 25 25 22 20 17 15 17 21 19 17 16 15 14 12 10 10 8 6 5 5 7 9 9 9 10 10 10 11 12 13 13 14
4 4 3 2 2 5 8 6 8 5 8 5 8 8 10 14 19 26 30 29 27 25 21 18 21 21 19 18 18 17 15 13 12 11 10 8 6 7 7 8 8 8 8 9 10 11 11 10 10
4 4 2 3 5 6 5 3 7 7 3 12 16 16 19 19 18 24 27 30 30 27 24 21 21 21 20 20 19 19 18 17 16 14 14 12 10 7 9 7 7 8 8 8 8 7 7 8 8
1 1 3 1 3 3 3 1 2 10 4 3 13 17 21 22 21 23 28 31 31 30 28 24 22 22 22 21 20 20 21 20 19 18 18 16 11 9 10 6 7 8 8 7 5 4 5 7 7
2 0 3 2 1 1 2 4 5 9 14 13 9 13 22 21 20 20 23 27 32 31 30 28 27 27 24 24 23 23 22 23 21 21 21 19 17 14 13 11 9 9 9 8 6 4 4 7 8
1 3 1 2 2 2 1 3 1 8 11 16 16 14 19 21 20 20 24 26 29 30 30 28 30 30 29 28 26 26 25 24 23 23 22 23 22 18 16 16 12 11 13 11 10 9 7 8 10
1 2 3 6 6 1 1 6 9 18 12 11 19 16 18 21 21 24 23 26 27 29 29 31 32 32 32 33 31 31 29 26 26 25 24 26 26 24 20 18 16 15 16 15 15 15 14 11 12
2 3 1 3 10 3 4 7 8 7 15 18 14 15 21 22 24 26 25 25 27 28 31 31 30 32 33 35 36 36 33 29 27 27 26 27 26 25 25 23 20 20 20 19 17 17 17 15 12
3 2 5 2 7 4 3 5 5 5 3 9 17 16 18 23 26 26 25 26 28 30 32 35 36 35 35 37 37 38 36 34 32 30 28 28 29 29 29 29 26 24 25 23 23 21 21 20 17
4 3 3 4 5 4 4 9 11 26 19 22 22 22 23 22 28 29 28 27 26 29 32 36 39 39 38 37 39 39 39 38 36 35 34 34 33 33 33 33 33 31 30 28 28 26 24 23 22
4 2 0 1 3 4 6 9 11 23 24 21 26 27 30 28 25 24 29 30 30 29 32 36 40 42 41 42 42 43 44 43 41 40 37 35 37 36 36 36 37 37 36 33 32 31 30 29 28
3 2 4 1 1 2 6 11 12 13 22 31 34 33 32 30 29 28 29 29 32 33 32 35 40 43 44 45 44 43 43 43 42 42 42 40 37 37 37 38 39 40 41 40 39 38 36 36 34
1 3 3 5 3 3 5 8 6 6 10 19 25 28 27 29 30 28 27 31 34 37 37 35 35 41 44 44 44 43 44 44 44 44 46 45 43 40 41 42 41 43 40 44 43 44 43 40 36
3 2 4 4 4 3 4 6 6 6 12 6 21 20 22 23 24 22 21 27 31 36 36 36 36 36 40 43 44 44 45 47 47 47 47 46 45 44 42 45 45 43 46 46 46 44 46 39 44
6 2 3 2 2 1 4 1 8 5 6 10 13 16 10 7 7 6 11 15 19 24 30 35 36 36 37 40 43 44 45 46 47 45 46 45 46 46 46 45 46 47 49 47 49 48 49 44 45
7 5 6 5 3 3 8 8 4 4 5 1 2 9 5 6 8 10 11 12 15 20 22 27 34 35 36 38 41 44 44 45 45 44 45 43 41 42 44 45 47 48 48 49 51 51 49 44 46
3 6 1 3 2 7 4 2 7 6 8 3 3 6 8 9 14 17 16 14 16 18 20 23 28 33 34 35 37 40 41 42 43 42 43 43 43 43 42 41 43 48 51 50 51 53 53 43 52
7 8 6 6 4 5 5 7 5 8 6 2 4 9 11 17 15 17 18 16 16 17 19 22 25 27 28 30 32 33 35 37 38 39 40 42 42 42 39 37 39 42 49 52 53 53 53 49 54
5 6 5 4 1 3 5 7 7 10 8 11 17 8 16 19 19 19 18 15 15 16 16 17 20 22 24 26 27 28 30 32 33 34 36 38 39 39 37 36 36 39 42 50 53 54 51 49 51
5 4 2 2 2 4 5 6 8 9 6 7 8 8 14 17 20 20 19 19 17 14 15 17 20 21 20 21 21 21 22 25 27 29 31 33 34 35 35 34 34 36 39 43 52 52 49 48 55
3 1 2 4 5 5 2 7 6 6 8 4 4 12 18 24 20 13 11 18 22 23 24 22 18 15 14 13 14 15 18 21 24 26 28 29 30 33 36 34 33 34 36 38 46 51 47 48 49
4 6 6 4 4 4 3 14 4 11 10 11 15 27 28 22 18 18 17 26 28 30 28 29 22 18 13 10 10 12 18 23 25 26 27 29 30 32 34 34 32 32 33 35 41 47 46 46 48
Wind_Direction
212 265 302 1 47 71 289 31 124 86 45 72 71 66 120 78 57 160 147 149 152 155 153 153 147 146 132 113 107 99 95 93 92 95 98 103 110 116 113 113 108 90 90 91 92 99 102 100 92
247 282 356 39 80 79 291 110 87 99 118 98 79 46 75 94 91 134 142 158 159 152 156 156 154 152 140 120 112 103 101 96 93 91 93 97 106 120 122 125 110 99 99 97 102 108 110 107 100
242 325 355 114 118 128 168 131 143 114 105 108 97 68 66 83 132 136 163 157 159 160 158 156 157 152 146 130 112 108 105 101 95 90 90 93 101 117 123 110 90 100 99 102 107 111 113 111 108
205 350 286 86 152 343 114 158 128 115 93 106 110 83 93 126 147 150 164 169 178 163 164 163 161 157 155 144 126 119 112 107 101 95 92 91 100 111 114 105 99 99 102 105 110 116 116 115 104
102 285 4 29 60 126 100 147 132 121 136 139 108 149 111 141 171 160 167 175 176 172 172 172 169 165 162 157 148 134 129 124 110 101 97 96 98 99 98 103 104 105 108 110 117 122 126 125 121
41 313 43 347 158 135 90 144 134 134 136 138 120 125 141 164 176 168 166 166 183 181 177 180 179 175 171 172 168 154 147 139 124 112 105 101 99 100 104 109 110 113 114 120 125 131 135 135 135
119 83 208 254 205 114 176 157 146 143 143 161 135 93 145 180 195 165 165 169 183 189 188 192 189 185 180 179 179 173 167 161 147 133 118 109 105 105 108 113 117 117 119 124 130 136 141 144 147
201 95 336 285 111 140 168 136 144 146 149 149 159 151 176 178 169 167 168 173 184 200 212 208 199 193 189 187 188 188 184 179 168 161 142 126 119 118 115 115 118 121 125 130 137 142 146 149 150
166 67 302 278 137 155 161 117 144 104 139 158 163 148 159 165 165 170 170 177 190 196 208 210 202 198 197 196 196 198 197 191 185 185 181 165 147 136 129 123 120 117 121 128 134 142 150 159 160
116 116 227 319 60 148 174 156 174 155 136 149 169 159 167 171 180 180 180 185 194 201 202 204 207 204 204 204 204 204 206 205 201 201 199 197 183 167 155 145 136 129 128 132 140 150 158 172 171
166 174 199 13 61 83 142 158 185 159 193 203 206 186 181 183 188 193 188 190 202 206 209 209 204 212 215 211 209 213 214 212 210 207 209 210 202 208 180 173 162 155 147 146 152 164 177 189 193
148 149 97 101 42 51 97 287 226 199 214 180 212 213 193 197 201 199 197 194 205 208 215 216 211 208 214 216 220 219 219 217 218 214 217 218 223 206 190 196 195 185 173 168 168 186 191 206 214
117 196 73 131 30 144 270 252 241 251 236 243 255 194 205 209 214 211 209 205 206 217 219 216 213 210 219 225 217 223 228 224 222 221 225 226 212 219 205 192 206 230 209 199 181 213 217 212 207
112 108 183 192 196 233 237 261 278 250 233 236 231 221 211 217 220 215 210 212 213 217 223 221 217 212 215 221 223 224 230 227 223 222 225 222 223 225 217 211 210 242 236 242 249 242 239 230 224
71 42 322 220 191 194 173 309 230 248 248 220 228 231 225 227 226 229 228 223 222 222 224 224 223 222 216 220 222 227 230 229 226 226 226 226 226 225 228 229 232 244 245 247 241 232 224 218 228
105 58 34 291 154 179 125 271 289 289 220 224 226 231 228 232 240 240 237 235 229 227 227 230 230 228 229 221 224 226 229 229 232 233 232 233 236 236 234 238 235 246 250 249 238 235 235 225 227
335 203 203 296 185 127 157 266 254 19 357 244 241 247 247 245 247 247 244 242 236 231 228 229 232 234 232 229 226 230 233 234 235 234 235 238 241 241 240 241 235 242 247 244 237 235 231 230 227
200 222 282 215 233 145 202 256 278 287 287 275 270 261 260 247 246 249 247 246 245 240 233 232 234 236 237 235 234 232 231 231 232 233 233 236 239 241 242 240 239 235 236 234 237 231 230 228 230
128 135 348 304 227 159 227 264 268 274 283 272 266 257 253 252 259 250 249 248 246 244 239 233 233 237 238 235 233 231 230 231 233 234 236 238 238 237 241 239 235 235 237 239 235 230 224 219 219
183 168 275 333 175 162 272 272 264 256 258 261 262 263 257 258 258 253 252 246 245 248 245 241 238 238 238 240 239 237 238 236 235 237 237 236 233 237 236 239 238 235 234 232 230 230 223 220 223
191 170 239 223 344 289 346 288 291 290 258 288 270 268 269 262 264 260 255 253 251 246 246 246 246 244 241 241 242 239 240 240 239 239 239 240 239 234 238 241 239 240 238 237 234 233 228 235 229
207 198 233 243 70 244 81 289 286 264 277 290 284 275 260 269 270 272 268 260 254 251 251 251 249 250 246 243 243 243 242 241 243 243 242 243 243 239 237 238 243 243 240 240 240 241 240 232 239
210 169 134 105 121 33 313 227 274 265 274 265 281 284 304 303 293 298 288 271 265 263 256 254 252 250 250 248 248 247 246 247 248 249 250 247 246 246 246 242 242 241 239 242 241 237 243 241 246
154 73 40 38 72 291 204 193 277 239 219 274 31 66 75 24 346 323 330 309 270 259 253 252 251 250 251 251 250 250 249 249 250 251 252 252 250 248 249 247 242 243 241 243 243 242 242 249 242
115 94 334 335 356 240 328 233 241 269 249 254 352 27 12 349 333 325 322 311 294 272 260 254 251 250 250 251 251 252 252 253 255 255 257 257 257 256 254 252 250 242 241 243 243 242 240 253 239
194 162 163 204 207 270 341 248 266 241 268 65 356 334 3 15 7 347 333 307 303 297 275 260 258 258 256 255 255 255 254 256 258 260 260 262 262 263 264 261 258 252 241 241 242 243 241 250 251
208 211 171 82 44 39 239 289 290 260 295 330 345 39 38 12 4 357 347 333 313 305 289 283 271 267 262 259 256 255 256 257 260 263 264 267 268 268 268 264 259 256 254 242 244 245 243 247 246
134 166 94 7 155 248 271 280 226 300 351 45 46 26 13 15 7 1 11 7 354 325 312 301 282 270 262 258 257 256 258 259 261 263 263 265 271 271 270 267 262 258 256 246 242 242 243 246 254
118 215 174 150 155 178 277 260 222 168 135 110 32 19 3 347 346 351 2 1 359 4 1 347 306 281 263 256 258 263 267 267 265 265 266 267 270 271 269 270 268 263 258 250 241 242 241 251 246
155 187 165 150 241 229 162 265 152 120 97 30 356 349 340 337 342 334 339 343 340 338 338 339 333 303 274 259 273 299 295 284 279 277 276 271 269 272 270 270 269 265 260 253 243 243 245 251 246